AO-07 1 07530U 74089B 26119.29576108 -.00000021 00000-0 15651-3 0 9995 2 07530 101.9928 132.0289 0011981 223.1206 148.8189 12.53697352354394 UO-11 1 14781U 84021B 26119.15449072 .00001317 00000-0 13998-3 0 9992 2 14781 97.8023 85.2928 0007472 358.7255 1.3943 14.90663845249822 AO-27 1 22825U 93061C 26119.19275403 .00000109 00000-0 58432-4 0 9994 2 22825 98.6902 186.6179 0007408 240.0084 120.0364 14.30928592699991 FO-29 1 24278U 96046B 26119.21735058 .00000012 00000-0 49931-4 0 9991 2 24278 98.5298 334.7812 0349139 223.3981 133.9183 13.53271838466545 GO-32 1 25397U 98043D 26119.24534146 .00000075 00000-0 52601-4 0 9998 2 25397 99.0062 110.7735 0001666 38.0812 322.0483 14.24418511444363 ISS 1 25544U 98067A 26119.16770407 .00006851 00000-0 13230-3 0 9993 2 25544 51.6320 182.7324 0007096 3.0267 357.0763 15.49015163564153 NO-44 1 26931U 01043C 26119.12751589 .00000154 00000-0 88316-4 0 9996 2 26931 67.0527 11.1618 0006481 264.0327 96.0037 14.31936536283426 SO-50 1 27607U 02058C 26118.79300162 .00001269 00000-0 16677-3 0 9991 2 27607 64.5516 281.7957 0075603 271.4499 87.7947 14.82935654257134 CO-55 1 27844U 03031E 26119.00354889 .00000324 00000-0 15933-3 0 9991 2 27844 98.6754 128.1790 0008956 335.4129 24.6622 14.24304328184678 RS-22 1 27939U 03042A 26119.32867105 .00000804 00000-0 13233-3 0 9997 2 27939 98.3467 302.3106 0012510 66.0656 56.7746 14.73377649208356 CO-65 1 32785U 08021C 26119.25200186 .00004433 00000-0 28459-3 0 9994 2 32785 97.8249 99.6795 0008695 183.4294 176.6876 15.08979147977814 CO-66 1 32791U 08021J 26119.21000459 .00016937 00000-0 56642-3 0 9995 2 32791 97.7522 114.8375 0005051 110.3194 249.8589 15.31054269979797 RS-30 1 32953U 08025A 26119.24826490 .00000038 00000-0 19777-3 0 9996 2 32953 82.5079 25.8780 0020614 58.8911 301.4188 12.43177757813618 SRMSAT 1 37841U 11058D 26119.32246927 .00000425 00000-0 87047-4 0 9993 2 37841 19.9736 355.2378 0011735 26.7876 133.2649 14.11564008750905 ZACUBE-1 1 39417U 13066B 26119.14277250 .00005450 00000-0 42559-3 0 9999 2 39417 97.8122 81.2158 0043850 57.4022 303.1423 15.00780129673375 Delfi-N3xt 1 39428U 13066N 26119.24476766 .00008594 00000-0 75766-3 0 9993 2 39428 97.8350 39.6216 0075768 11.0046 349.2809 14.94463724667314 GOMX-1 1 39430U 13066Q 26119.29097478 .00001844 00000-0 28387-3 0 9998 2 39430 97.6524 322.8339 0127625 234.2424 124.6862 14.69271901662731 LO-74 1 39440U 13066AA 26119.29066391 .00002741 00000-0 25841-3 0 9998 2 39440 97.8879 68.0875 0057590 187.9295 172.1020 14.93412917669691 AO-73 1 39444U 13066AE 26119.19078872 .00008906 00000-0 56136-3 0 9998 2 39444 97.8246 89.6477 0037205 13.5570 346.6649 15.08803446672272 DTUSAT-2 1 40030U 14033W 26119.22016196 .00006709 00000-0 36949-3 0 9990 2 40030 98.0859 113.8665 0009259 51.3730 308.8328 15.14356038645274 LILACSAT-2 1 40908U 15049K 26119.22713487 .00015059 00000-0 27167-3 0 9999 2 40908 97.4722 154.2514 0008723 77.8928 282.3300 15.49816488588167 Horyu-4 1 41340U 16012D 26118.99936435 .00140892 00000-0 93275-3 0 9991 2 41340 30.9892 73.3176 0006401 267.3541 92.6382 15.73973989563017 Lapan A3 1 41603U 16040E 26119.29909666 .00003547 00000-0 11427-3 0 9998 2 41603 97.1486 117.0654 0010172 179.9487 180.1759 15.32781457547326 CAS-2T 1 41847U 16066G 26119.20126901 .00000658 00000-0 10282-3 0 9998 2 41847 98.3830 195.4901 0340931 278.2317 78.0350 14.44571202497728 TechnoSat 1 42829U 17042E 26119.17523661 .00003463 00000-0 24988-3 0 9999 2 42829 97.4234 278.7247 0016141 260.0109 99.9297 15.04656115479339 AO-91 1 43017U 17073E 26119.11147528 .00010049 00000-0 44347-3 0 9990 2 43017 97.4781 347.3504 0154034 137.5941 223.7315 15.11814540457971 S-Net D 1 43186U 18014G 26119.30216775 .00004810 00000-0 25232-3 0 9996 2 43186 97.5405 24.4067 0008247 175.4817 184.6492 15.16204797451355 S-Net B 1 43187U 18014H 26119.24666994 .00004375 00000-0 22995-3 0 9991 2 43187 97.5409 24.3369 0008998 171.7771 188.3610 15.16175175451344 S-Net A 1 43188U 18014J 26119.23528685 .00004669 00000-0 24493-3 0 9996 2 43188 97.5418 24.5252 0008855 172.5475 187.5891 15.16210471451341 S-Net C 1 43189U 18014K 26119.25027557 .00004400 00000-0 23123-3 0 9993 2 43189 97.5436 24.6073 0010461 166.8181 193.3327 15.16166778449896 Ten-Koh 1 43677U 18084G 26119.25212516 .00002335 00000-0 17967-3 0 9997 2 43677 98.0793 309.5602 0007456 284.6366 75.4031 15.02731343408817 PO-101 1 43678U 18084H 26119.28371366 .00002262 00000-0 18589-3 0 9990 2 43678 98.1071 313.4089 0012987 338.5733 21.4944 15.00206324408888 QO-100 1 43700U 18090A 26119.27985030 .00000142 00000-0 00000-0 0 9992 2 43700 0.0136 254.7841 0001597 175.0281 274.0032 1.00276305 27183 MinXSS-2 1 43758U 18099A 26119.13540311 .00034508 00000-0 76309-3 0 9999 2 43758 97.4563 194.1033 0008802 89.7593 270.4663 15.43712015406550 AO-95 1 43770U 18099N 26119.16530301 .00010609 00000-0 41926-3 0 9997 2 43770 97.4423 179.6243 0009911 152.7853 207.3906 15.25633116405745 SNUSat 2 1 43782U 18099AA 26119.13812652 .00008561 00000-0 38750-3 0 9994 2 43782 97.4105 173.2936 0012140 107.3214 252.9351 15.21069148405574 SnugLite 1 43784U 18099AC 26119.11493919 .00011515 00000-0 44904-3 0 9996 2 43784 97.3911 173.9080 0004613 103.6533 256.5220 15.26089445405837 ITASat 1 1 43786U 18099AE 26119.13367586 .00006220 00000-0 30487-3 0 9998 2 43786 97.4073 171.6374 0013575 157.3481 202.8355 15.18411748405463 EAGLET 1 1 43790U 18099AJ 26119.10395419 .00004265 00000-0 24785-3 0 9997 2 43790 97.4276 170.0758 0012148 149.1201 211.0747 15.12554385404911 ESEO 1 43792U 18099AL 26119.08567071 .00001125 00000-0 85298-4 0 9990 2 43792 97.4016 158.5714 0013354 134.6435 225.5883 15.04091649404423 JO-97 1 43803U 18099AX 26119.13539994 .00017149 00000-0 55509-3 0 9996 2 43803 97.4171 181.8507 0007311 90.7072 269.5007 15.32082252406117 Suomi 100 1 43804U 18099AY 26119.15097306 .00011396 00000-0 42803-3 0 9996 2 43804 97.4230 179.7604 0011794 95.8424 264.4159 15.27286674405934 ISAT 1 43879U 18111D 26119.06418827 .00070071 00000-0 94084-3 0 9991 2 43879 97.5904 50.8226 0008807 109.4207 250.8001 15.57654645403502 UWE-4 1 43880U 18111E 26119.23771178 .00026372 00000-0 59505-3 0 9997 2 43880 97.5861 45.4921 0010154 129.5207 230.6939 15.43153573403223 Sparrow 1 43881U 18111F 26118.80530334 .00094366 00000-0 10244-2 0 9991 2 43881 97.6124 55.4473 0006943 126.0371 234.1531 15.63168573403635 Prox-1 1 44339U 19036A 26119.23677823 .00013131 00000-0 13180-2 0 9993 2 44339 23.9951 80.9263 0006574 184.8830 175.1606 14.89426049366161 Taurus 1 1 44530U 19059C 26119.29476753 .00005866 00000-0 95188-3 0 9991 2 44530 98.6369 281.1218 0009854 106.7415 253.4873 14.71548921351454 TO-108 1 44881U 19093C 26119.24165626 .00001382 00000-0 16238-3 0 9995 2 44881 97.7549 192.6655 0012066 246.0774 113.9178 14.86440856344149 RS-44 1 44909U 19096E 26119.21999845 .00000015 00000-0 24384-4 0 9998 2 44909 82.5260 12.2455 0216374 258.8497 98.8210 12.79747963296084 SALSAT 1 46495U 20068K 26119.27249140 .00007841 00000-0 28027-3 0 9994 2 46495 97.8854 119.3884 0011638 111.2611 248.9872 15.29062672307883 CSS (TIANHE-1) 1 48274U 21035A 26119.29276164 .00024304 00000-0 26128-3 0 9997 2 48274 41.4670 259.6892 0006721 294.8337 65.1804 15.63149064285527 CUTE 1 49263U 21088D 26119.26026247 .00064620 00000-0 43497-3 0 9999 2 49263 97.4201 214.5942 0001084 147.9965 212.1366 15.74969031254816 TeikyoSat 4 1 49396U 21102B 26119.32923917 .00001827 00000-0 11814-3 0 9998 2 49396 97.3715 150.7082 0013770 100.2499 260.0284 15.09329836245358 Z-Sat 1 49399U 21102E 26119.28897602 .00004290 00000-0 21408-3 0 9994 2 49399 97.3374 156.0985 0018280 61.1674 299.1393 15.17885241246029 KOSEN 1 1 49402U 21102H 26119.10851665 .00007724 00000-0 30094-3 0 9995 2 49402 97.3236 162.2326 0014360 28.6279 331.5745 15.26149034246534 HO-113 1 50466U 21131B 26119.32149848 .00000433 00000-0 14766-3 0 9994 2 50466 98.4952 211.9833 0003069 234.4101 125.6802 14.41309161228073 SNUGLITE 2 1 52899U 22065F 26118.35310429 .00001189 00000-0 23482-3 0 9994 2 52899 98.2130 263.2940 0007713 170.9347 189.1996 14.64250449203707 UmKA 1 (RS40S) 1 57172U 23091G 26119.26376823 .00005461 00000-0 25448-3 0 9995 2 57172 97.5091 178.1606 0011245 292.3828 67.6215 15.20258341156573 CubeBel-2 (EU11S) 1 57175U 23091K 26119.28268451 .00010719 00000-0 39451-3 0 9998 2 57175 97.5089 182.0990 0008388 288.9799 71.0531 15.28010307156830 RS-38S 1 57189U 23091Z 26119.26295120 .00014996 00000-0 45091-3 0 9992 2 57189 97.5123 187.8216 0006384 235.1046 124.9598 15.34473198157189 SONATE-2 1 59112U 24043Q 26119.16292644 .00032751 00000-0 48429-3 0 9992 2 59112 97.5476 266.7065 0006567 27.6791 332.4811 15.55230691120266 GRBBeta 1 60237U 24128C 26119.16722220 .00004147 00000-0 28908-3 0 9992 2 60237 61.9920 28.1990 0046794 124.3455 236.2078 15.06237067 98888 Curium One 1 60242U 24128H 26119.10308379 .00008235 00000-0 48125-3 0 9992 2 60242 61.9808 19.5154 0046422 120.7156 239.8525 15.11714843 99033 ROBUSTA-3A 1 60243U 24128J 26119.30572438 .00007791 00000-0 46587-3 0 9990 2 60243 61.9888 21.0037 0047484 118.1739 242.4165 15.10904112 99036 CatSat 1 60246U 24125J 26119.26223777 .00040864 00000-0 63359-3 0 9998 2 60246 97.2142 331.3124 0023276 7.9063 352.2553 15.53584244 99786 HYPERVIEW-1G (RS66S) 1 61772U 24199AP 26119.24537985 .00074297 00000-0 73422-3 0 9990 2 61772 97.2980 356.8868 0009201 99.1214 261.1087 15.65603447126995 AO-123 1 61781U 24199AY 26119.28298433 .00007113 00000-0 21141-3 0 9990 2 61781 97.3075 348.4035 0015639 121.0547 239.2234 15.34945218126429 JINJUSat 1B 1 63210U 25052A 26119.24667088 .00015254 00000-0 49619-3 0 9995 2 63210 97.4063 15.9812 0001280 240.3497 119.7617 15.31974659 62605 NUSHSAT 1 1 63211U 25052B 26119.23237563 .00017334 00000-0 52764-3 0 9992 2 63211 97.4042 16.3784 0000906 242.0185 118.0966 15.34067913 62634 TEVEL2-4 1 63213U 25052D 26119.24988739 .00016961 00000-0 53573-3 0 9997 2 63213 97.3966 15.6122 0000511 336.1476 23.9742 15.32893858 62615 TEVEL2-5 1 63214U 25052E 26119.20000557 .00016012 00000-0 50832-3 0 9999 2 63214 97.3960 15.5233 0000538 323.0153 37.1052 15.32744331 62609 TEVEL2-6 1 63215U 25052F 26119.21114650 .00016397 00000-0 52111-3 0 9999 2 63215 97.3963 15.5191 0000643 328.0693 32.0510 15.32705524 62601 TEVEL2-1 1 63217U 25052H 26119.22416866 .00015783 00000-0 50920-3 0 9990 2 63217 97.3937 15.2123 0001251 352.3084 7.8138 15.32230743 62596 TEVEL2-3 1 63218U 25052J 26119.22040738 .00015809 00000-0 50930-3 0 9992 2 63218 97.3941 15.2250 0001282 352.2355 7.8867 15.32276239 62596 TEVEL2-2 1 63219U 25052K 26119.22469927 .00015625 00000-0 50406-3 0 9992 2 63219 97.3938 15.2144 0001257 353.3923 6.7302 15.32235901 62593 TEVEL2-9 1 63237U 25052AD 26119.14113243 .00014707 00000-0 50238-3 0 9993 2 63237 97.4002 14.6067 0004941 334.3423 25.7572 15.30390061 62520 TEVEL2-7 1 63238U 25052AE 26119.23865429 .00014519 00000-0 49988-3 0 9995 2 63238 97.4004 14.6393 0005045 333.5895 26.5088 15.30136484 62534 TEVEL2-8 1 63239U 25052AF 26119.24635343 .00014814 00000-0 51025-3 0 9990 2 63239 97.4003 14.6255 0005031 335.0851 25.0146 15.30117693 62535 HYDRA-W 1 63490U 25052BL 26113.93882235 .05662091 24406-5 29537-2 0 9997 2 63490 97.3690 18.2798 0008685 203.5899 156.4993 16.20186780 62336 HADES-ICM (SO-125) 1 63492U 25052BN 26119.22310369 .00392382 00000-0 20945-2 0 9992 2 63492 97.3833 22.2281 0004052 149.9618 210.1882 15.79325908 63050 SPIRONE 1 66657U 25274H 26119.07623585 .00002708 00000-0 26333-3 0 9992 2 66657 97.7470 49.0810 0012325 170.1431 190.0033 14.93338797 22899 K-HERO 1 66660U 25274L 26119.22871627 .00002354 00000-0 22711-3 0 9998 2 66660 97.7480 49.3560 0013967 175.1603 184.9754 14.93773562 22927 SNUGLITE-III DURI 1 66661U 25274M 26118.74925485 .00002302 00000-0 22188-3 0 9998 2 66661 97.7477 48.9019 0014559 178.1327 181.9950 14.93832414 22851 SilverSat 1 66909U 98067XV 26113.44966717 .07226154 12288-4 11979-2 0 9998 2 66909 51.6027 190.0749 0007952 333.4666 26.5949 16.32457272 22308 SAKHACUBE-CHOLBON 1 67290U 25313AU 26119.19214410 .00008633 00000-0 35909-3 0 9998 2 67290 97.3954 194.8706 0010233 160.5088 199.6543 15.23968070 18518 RS95S (QMR-KWT-2) 1 67291U 25313AV 26119.15334072 .00013716 00000-0 55163-3 0 9994 2 67291 97.3951 194.9205 0010054 160.1739 199.9892 15.24979130 18511 Ten-Koh2 1 68261U 25241B 26118.49303690 .00006939 00000-0 30247-3 0 9995 2 68261 51.6483 196.0494 0005701 343.7338 16.3455 15.23255257 7333 JACK-002 1 68417U 26067B 26119.15295093 .00006857 00000-0 33302-3 0 9990 2 68417 97.4533 78.3849 0004141 90.0956 270.0752 15.18766117 4502 DISCO 2 1 68431U 26067R 26119.22774796 .00007421 00000-0 36464-3 0 9996 2 68431 97.4569 78.4528 0003477 129.8693 230.2847 15.18335884 4519 HADES-SA (SpinnyONE) 1 68446U 26067AG 26119.11934353 .00018223 00000-0 91313-3 0 9993 2 68446 97.4375 78.2241 0005001 233.0009 127.0767 15.17406644 4486 PARUS-6U1 1 68456U 26067AS 26119.18698056 .00005449 00000-0 27912-3 0 9998 2 68456 97.4517 78.3358 0004264 218.7081 141.3847 15.16993175 4505 SAL-E 1 68458U 26067AU 26119.12111746 .00008128 00000-0 41395-3 0 9998 2 68458 97.4443 78.2440 0004176 231.3342 128.7518 15.17046533 4499 IO-86 1 40931U 25360.30710720 .00000000 00000-0 12800-3 0 00 2 40931 6.0006 332.5373 0012733 338.8432 8.1437 14.79075515 01 LILIUM-4 1 71922C 26067AC 26089.50133053 -.00014632 00000 0 -74472-3 0 04 2 71922 97.4497 49.1617 0004341 5.9603 355.7042 15.16896692 16